Weather History for Andrews, NC

Change the Weather History Date:

Wednesday, November 6, 2013

  Actual Average (KTYS) Record (KTYS)
Temperature  
Mean Temperature 57 °F 53 °F  
Max Temperature 70 °F 64 °F 79 °F (2005)
Min Temperature 44 °F 42 °F 25 °F (1991)
Degree Days  
Heating Degree Days 8 12  
Month to date heating degree days 69  
Since 1 July heating degree days 288  
Cooling Degree Days 0 0  
Month to date cooling degree days 0  
Year to date cooling degree days 1523  
Growing Degree Days 7 (Base 50)    
Moisture  
Dew Point 50 °F    
Average Humidity 73    
Maximum Humidity 93    
Minimum Humidity 52    
Precipitation  
Precipitation 0.00 in 0.12 in 1.96 in (1885)
Month to date precipitation 0.69  
Year to date precipitation 40.04  
Snow  
Snow 0.00 in 0.00 in - ()
Month to date snowfall 0.0  
Since 1 July snowfall 0.0  
Since 1 September snowfall 0.0  
Snow Depth -    
Sea Level Pressure  
Sea Level Pressure 30.24 in    
Wind  
Wind Speed 2 mph (SW)    
Max Wind Speed 12 mph    
Max Gust Speed 18 mph    
Visibility 10 miles    
Events      
T = Trace of Precipitation, MM = Missing Value Source: NWS Daily Summary

Daily Weather History Graph

Daily Weather History Graph

Search for Another Location

Airport:

Trip Planner

Search our weather history database for the weather conditions in past years. The results will help you decide how hot, cold, wet, or windy it might be!

Date:

Astronomy

Nov. 06, 2013 Rise Set
Actual Time 7:01 AM EST 5:35 PM EST
Civil Twilight 6:35 AM EST 6:02 PM EST
Nautical Twilight 6:05 AM EST 6:32 PM EST
Astronomical Twilight 5:35 AM EST 7:02 PM EST
Moon 10:12 AM EST (11/6) 8:42 PM EST (11/6)
Length of Visible Light 11h 27m
Length of Day
10h 34m
Waxing Crescent, 13% of the Moon is Illuminated
Nov 6
Waxing Crescent
Nov 10
First Quarter
Nov 17
Full
Nov 25
Last Quarter
Dec 2
New

Hourly Weather History & Observations

Time (EST) Temp. Dew Point Humidity Pressure Visibility Wind Dir Wind Speed Gust Speed Precip Events Conditions
12:15 AM 44.2 °F 42.3 °F 93% 30.37 in 10.0 mi Calm Calm - N/A   Overcast
12:35 AM 45.0 °F 42.4 °F 91% 30.37 in 10.0 mi Calm Calm - N/A   Overcast
12:55 AM 45.5 °F 43.0 °F 91% 30.36 in 10.0 mi Calm Calm - N/A   Overcast
1:35 AM 46.4 °F 43.3 °F 89% 30.34 in 10.0 mi Calm Calm - N/A   Overcast
1:55 AM 46.8 °F 43.7 °F 89% 30.34 in 10.0 mi Calm Calm - N/A   Overcast
2:15 AM 46.9 °F 43.9 °F 89% 30.33 in 10.0 mi Calm Calm - N/A   Overcast
2:35 AM 47.3 °F 44.1 °F 88% 30.33 in 10.0 mi Calm Calm - N/A   Overcast
2:55 AM 47.5 °F 44.2 °F 89% 30.32 in 10.0 mi Calm Calm - N/A   Overcast
3:15 AM 48.0 °F 43.9 °F 86% 30.31 in 10.0 mi Calm Calm - N/A   Overcast
3:35 AM 48.2 °F 44.6 °F 87% 30.30 in 10.0 mi Calm Calm - N/A   Overcast
3:55 AM 48.7 °F 44.6 °F 86% 30.30 in 10.0 mi Calm Calm - N/A   Overcast
4:15 AM 49.1 °F 45.0 °F 86% 30.30 in 10.0 mi Calm Calm - N/A   Overcast
4:35 AM 49.1 °F 45.0 °F 86% 30.30 in 10.0 mi Calm Calm - N/A   Overcast
4:55 AM 49.6 °F 45.5 °F 86% 30.30 in 10.0 mi Calm Calm - N/A   Overcast
5:15 AM 49.5 °F 45.3 °F 86% 30.30 in 10.0 mi Calm Calm - N/A   Overcast
5:35 AM 50.0 °F 45.7 °F 85% 30.30 in 10.0 mi Calm Calm - N/A   Overcast
5:55 AM 50.2 °F 46.0 °F 86% 30.30 in 10.0 mi Calm Calm - N/A   Overcast
6:15 AM 50.4 °F 46.2 °F 86% 30.30 in 10.0 mi Calm Calm - N/A   Overcast
6:35 AM 50.9 °F 46.6 °F 85% 30.29 in 10.0 mi Calm Calm - N/A   Overcast
6:55 AM 51.6 °F 46.9 °F 84% 30.29 in 10.0 mi Calm Calm - N/A   Overcast
7:15 AM 52.7 °F 48.2 °F 85% 30.29 in 10.0 mi Calm Calm - N/A   Overcast
7:35 AM 52.7 °F 48.2 °F 85% 30.29 in 10.0 mi Calm Calm - N/A   Overcast
7:55 AM 55.8 °F 50.5 °F 83% 30.29 in 10.0 mi Calm Calm - N/A   Overcast
8:15 AM 61.7 °F 52.9 °F 73% 30.29 in 10.0 mi WNW 5.8 mph - N/A   Overcast
8:35 AM 63.3 °F 52.9 °F 69% 30.29 in 10.0 mi West 4.6 mph - N/A   Overcast
8:55 AM 63.5 °F 52.3 °F 67% 30.30 in 10.0 mi Calm Calm - N/A   Overcast
9:15 AM 65.3 °F 52.7 °F 64% 30.30 in 10.0 mi WSW 9.2 mph - N/A   Overcast
9:35 AM 65.3 °F 52.5 °F 63% 30.30 in 10.0 mi WSW 11.5 mph - N/A   Overcast
9:55 AM 63.0 °F 51.8 °F 67% 30.30 in 10.0 mi WSW 6.9 mph 10.4 mph N/A   Overcast
10:15 AM 62.6 °F 51.8 °F 68% 30.30 in 10.0 mi West 6.9 mph - N/A   Overcast
10:35 AM 63.0 °F 51.8 °F 67% 30.30 in 10.0 mi SSW 9.2 mph - N/A   Overcast
10:55 AM 63.0 °F 52.0 °F 67% 30.30 in 10.0 mi WSW 10.4 mph - N/A   Overcast
11:15 AM 63.5 °F 51.8 °F 66% 30.29 in 10.0 mi WSW 8.1 mph - N/A   Overcast
11:35 AM 64.9 °F 51.8 °F 62% 30.28 in 10.0 mi West 10.4 mph - N/A   Overcast
11:55 AM 66.0 °F 51.4 °F 59% 30.27 in 10.0 mi West 8.1 mph 17.3 mph N/A   Overcast
12:15 PM 66.6 °F 51.1 °F 57% 30.27 in 10.0 mi WSW 9.2 mph - N/A   Overcast
12:35 PM 66.6 °F 51.3 °F 58% 30.26 in 10.0 mi SW 8.1 mph 18.4 mph N/A   Overcast
12:55 PM 66.0 °F 51.1 °F 59% 30.25 in 10.0 mi SSW 6.9 mph 16.1 mph N/A   Overcast
1:15 PM 67.1 °F 51.3 °F 57% 30.23 in 10.0 mi South 10.4 mph - N/A   Overcast
1:35 PM 68.0 °F 51.4 °F 55% 30.22 in 10.0 mi SW 10.4 mph 18.4 mph N/A   Overcast
1:55 PM 67.8 °F 51.6 °F 56% 30.22 in 10.0 mi South 5.8 mph - N/A   Overcast
2:15 PM 70.0 °F 51.8 °F 52% 30.21 in 10.0 mi South 6.9 mph - N/A   Overcast
2:35 PM 69.3 °F 51.6 °F 53% 30.20 in 10.0 mi SSW 5.8 mph - N/A   Overcast
2:55 PM 68.2 °F 51.8 °F 56% 30.20 in 10.0 mi South 8.1 mph - N/A   Mostly Cloudy
3:15 PM 69.4 °F 52.2 °F 54% 30.19 in 10.0 mi South 4.6 mph - N/A   Mostly Cloudy
3:35 PM 66.7 °F 51.6 °F 58% 30.19 in 10.0 mi SSW 4.6 mph - N/A   Mostly Cloudy
3:55 PM 68.5 °F 52.0 °F 55% 30.18 in 10.0 mi SSW 6.9 mph - N/A   Scattered Clouds
4:15 PM 66.6 °F 52.0 °F 59% 30.18 in 10.0 mi South 4.6 mph - N/A   Mostly Cloudy
4:35 PM 65.8 °F 52.0 °F 61% 30.18 in 10.0 mi South 3.5 mph - N/A   Overcast
4:55 PM 65.3 °F 52.0 °F 62% 30.18 in 10.0 mi SSE 3.5 mph - N/A   Overcast
5:15 PM 64.8 °F 52.0 °F 63% 30.18 in 10.0 mi SW 3.5 mph - N/A   Overcast
5:35 PM 63.5 °F 52.2 °F 67% 30.17 in 10.0 mi SW 5.8 mph - N/A   Overcast
5:55 PM 63.3 °F 52.0 °F 66% 30.18 in 10.0 mi South 5.8 mph - N/A   Overcast
6:15 PM 63.5 °F 51.8 °F 66% 30.17 in 10.0 mi South 5.8 mph - N/A   Overcast
6:35 PM 63.3 °F 51.8 °F 66% 30.18 in 10.0 mi South 4.6 mph - N/A   Overcast
6:55 PM 63.1 °F 51.8 °F 66% 30.18 in 10.0 mi Calm Calm - N/A   Overcast
7:15 PM 62.6 °F 51.8 °F 68% 30.18 in 10.0 mi South 3.5 mph - N/A   Overcast
7:35 PM 61.7 °F 51.8 °F 70% 30.17 in 10.0 mi West 4.6 mph - N/A   Overcast
7:55 PM 61.7 °F 52.0 °F 70% 30.17 in 10.0 mi West 3.5 mph - N/A   Overcast
8:15 PM 61.9 °F 51.8 °F 69% 30.17 in 10.0 mi Calm Calm - N/A   Overcast
8:35 PM 61.0 °F 52.0 °F 72% 30.16 in 10.0 mi West 3.5 mph - N/A   Overcast
8:55 PM 61.7 °F 51.8 °F 70% 30.16 in 10.0 mi WSW 4.6 mph - N/A   Overcast
9:15 PM 61.9 °F 51.8 °F 69% 30.15 in 10.0 mi South 4.6 mph - N/A   Overcast
9:35 PM 61.7 °F 51.8 °F 70% 30.15 in 10.0 mi WNW 3.5 mph - N/A   Overcast
9:55 PM 60.1 °F 51.8 °F 74% 30.15 in 10.0 mi West 4.6 mph - N/A   Scattered Clouds
10:15 PM 57.2 °F 51.4 °F 81% 30.14 in 10.0 mi WSW 3.5 mph - N/A   Scattered Clouds
10:35 PM 56.8 °F 51.8 °F 83% 30.14 in 10.0 mi SSW 3.5 mph - N/A   Mostly Cloudy
10:55 PM 58.3 °F 51.8 °F 79% 30.15 in 10.0 mi WSW 4.6 mph - N/A   Overcast
11:15 PM 58.3 °F 52.0 °F 80% 30.15 in 10.0 mi SSW 3.5 mph - N/A   Overcast
11:35 PM 57.4 °F 52.0 °F 82% 30.14 in 10.0 mi Calm Calm - N/A   Overcast
11:55 PM 57.6 °F 52.2 °F 82% 30.14 in 10.0 mi Calm Calm - N/A   Overcast